Satellite: SO-50
Catalog number: 27607
Epoch time:      12102.53833834
Element set:    0736
Inclination:      064.5571 deg
RA of node:       137.6342 deg
Eccentricity:    0.0084838
Arg of perigee:   261.7191 deg
Mean anomaly:     097.4285 deg
Mean motion:   14.72301232 rev/day
Decay rate:       3.77e-06 rev/day^2
Epoch rev:           50015
Checksum:              296

Satellite: CO-55
Catalog number: 27844
Epoch time:      12102.52310920
Element set:     349
Inclination:      098.7048 deg
RA of node:       111.8702 deg
Eccentricity:    0.0010636
Arg of perigee:   056.1401 deg
Mean anomaly:     304.0774 deg
Mean motion:   14.20991967 rev/day
Decay rate:       2.47e-06 rev/day^2
Epoch rev:           45542
Checksum:              284

Satellite: CO-57
Catalog number: 27848
Epoch time:      12102.51518635
Element set:     300
Inclination:      098.7123 deg
RA of node:       111.1662 deg
Eccentricity:    0.0010635
Arg of perigee:   063.1627 deg
Mean anomaly:     297.0615 deg
Mean motion:   14.20747365 rev/day
Decay rate:       1.92e-06 rev/day^2
Epoch rev:           45536
Checksum:              286

Satellite: AO-51
Catalog number: 28375
Epoch time:      12102.48725628
Element set:     238
Inclination:      098.1403 deg
RA of node:       070.8919 deg
Eccentricity:    0.0082615
Arg of perigee:   243.2574 deg
Mean anomaly:     116.0136 deg
Mean motion:   14.40924777 rev/day
Decay rate:       1.95e-06 rev/day^2
Epoch rev:           40916
Checksum:              308

Satellite: CP3
Catalog number: 31129
Epoch time:      12102.49248640
Element set:    0138
Inclination:      097.8825 deg
RA of node:       114.1926 deg
Eccentricity:    0.0101087
Arg of perigee:   331.3744 deg
Mean anomaly:     028.1904 deg
Mean motion:   14.52982565 rev/day
Decay rate:       4.88e-06 rev/day^2
Epoch rev:           26429
Checksum:              302

Satellite: CO-65
Catalog number: 32785
Epoch time:      12103.65756345
Element set:     279
Inclination:      097.8054 deg
RA of node:       166.2459 deg
Eccentricity:    0.0013641
Arg of perigee:   277.1696 deg
Mean anomaly:     082.7986 deg
Mean motion:   14.82817524 rev/day
Decay rate:       4.90e-06 rev/day^2
Epoch rev:           21405
Checksum:              338

Satellite: PRISM
Catalog number: 33493
Epoch time:      12103.64276630
Element set:     600
Inclination:      098.1613 deg
RA of node:       242.6976 deg
Eccentricity:    0.0019734
Arg of perigee:   146.9307 deg
Mean anomaly:     213.3136 deg
Mean motion:   14.83529228 rev/day
Decay rate:      2.713e-05 rev/day^2
Epoch rev:           17403
Checksum:              286

Satellite: SOHLA-1
Catalog number: 33496
Epoch time:      12102.87202754
Element set:    0713
Inclination:      098.0976 deg
RA of node:       215.0745 deg
Eccentricity:    0.0005667
Arg of perigee:   250.9241 deg
Mean anomaly:     109.1337 deg
Mean motion:   14.69915048 rev/day
Decay rate:       1.76e-06 rev/day^2
Epoch rev:           17250
Checksum:              298

Satellite: SO-67
Catalog number: 35870
Epoch time:      12103.70220853
Element set:     859
Inclination:      097.2389 deg
RA of node:       141.7539 deg
Eccentricity:    0.0003619
Arg of perigee:   063.4078 deg
Mean anomaly:     044.3695 deg
Mean motion:   15.23250957 rev/day
Decay rate:      3.251e-05 rev/day^2
Epoch rev:           14264
Checksum:              314

Satellite: TISAT-1
Catalog number: 36799
Epoch time:      12103.84212941
Element set:     876
Inclination:      098.0654 deg
RA of node:       179.7007 deg
Eccentricity:    0.0015539
Arg of perigee:   029.4056 deg
Mean anomaly:     330.7986 deg
Mean motion:   14.81719509 rev/day
Decay rate:      1.487e-05 rev/day^2
Epoch rev:            9481
Checksum:              338

Satellite: STUDSAT
Catalog number: 36801
Epoch time:      12103.87029277
Element set:     374
Inclination:      098.0715 deg
RA of node:       180.1734 deg
Eccentricity:    0.0013476
Arg of perigee:   014.9761 deg
Mean anomaly:     345.1831 deg
Mean motion:   14.83656875 rev/day
Decay rate:      4.381e-05 rev/day^2
Epoch rev:            9483
Checksum:              310

Satellite: FO-69
Catalog number: 37227
Epoch time:      12103.47950675
Element set:    0152
Inclination:      071.9676 deg
RA of node:       096.9443 deg
Eccentricity:    0.0015220
Arg of perigee:   082.7588 deg
Mean anomaly:     277.5320 deg
Mean motion:   14.76995897 rev/day
Decay rate:       3.59e-06 rev/day^2
Epoch rev:           02639
Checksum:              351

Satellite: FO-70
Catalog number: 37380
Epoch time:      12103.47406603
Element set:    0159
Inclination:      071.9710 deg
RA of node:       097.4324 deg
Eccentricity:    0.0015706
Arg of perigee:   079.2594 deg
Mean anomaly:     281.0355 deg
Mean motion:   14.76751023 rev/day
Decay rate:       4.00e-06 rev/day^2
Epoch rev:           02628
Checksum:              281

Satellite: ALMASAT-1
Catalog number: 38078
Epoch time:      12103.48791226
Element set:     116
Inclination:      069.4896 deg
RA of node:       105.8540 deg
Eccentricity:    0.0769364
Arg of perigee:   330.7263 deg
Mean anomaly:     025.2729 deg
Mean motion:   14.06774639 rev/day
Decay rate:     2.5028e-04 rev/day^2
Epoch rev:             830
Checksum:              315

